#timestamp,LO_Frequency,Hit,StdDev 
1633219215.0,286047000.4,N
1633219215.9,286047000.4,N
1633219235.8,286046999.8,N
1633219255.6,286046999.8,N
1633219275.4,286047000.2,N
1633219295.3,286046999.8,N
1633219315.1,286046999.8,N
1633219316.0,286046999.8,N
1633219335.8,286047001.0,N
1633219355.7,286047001.1,N
1633219375.5,286047000.7,N
1633219395.3,286047000.7,N
1633219415.2,286047000.3,N
1633219435.9,286046998.5,N
1633219455.7,286047000.5,N
1633219475.6,286046999.7,N
1633219495.4,286047002.3,N
1633219515.2,286047002.4,N
1633219535.1,286047002.1,N
1633219536.0,286047002.1,N
1633219555.8,286047001.5,N
1633219575.6,286047002.1,N
1633219595.5,286047000.1,N
1633219615.3,286047002.0,N
1633219635.1,286047002.8,N
1633219655.9,286047001.9,N
1633219675.7,286047000.3,N
1633219695.5,286046998.8,N
1633219715.4,286047000.5,N
1633219735.2,286046999.3,N
1633219755.0,286047000.9,N
1633219755.9,286047000.9,N
1633219775.8,286047000.9,N
1633219795.6,286047000.3,N
1633219815.4,286046998.5,N
1633219835.3,286046996.9,N
1633219855.1,286046999.6,N
1633219856.0,286046999.6,N
1633219875.8,286046996.5,N
1633219895.7,286046996.7,N
1633219915.5,286046999.5,N
1633219935.3,286046999.1,N
1633219955.2,286046997.1,N
1633219975.9,286046996.8,N
1633219995.7,286046996.5,N
1633220015.6,286046997.1,N
1633220035.4,286046994.9,N
1633220055.2,286046994.9,N
1633220075.1,286046995.4,N
1633220076.0,286046995.4,N
1633220095.8,286046997.3,N
1633220115.6,286046997.6,N
1633220135.5,286046997.9,N
1633220155.3,286046996.6,N
1633220175.1,286046999.6,N
1633220195.9,286046997.4,N
1633220215.7,286046997.2,N
1633220235.5,286046997.6,N
1633220255.3,286046995.0,N
1633220305.2,286046994.9,E
1633220315.1,286046998.5,N
1633220335.9,286047000.3,P
1633220355.7,286047000.3,N
1633220375.5,286047002.3,N
1633220395.4,286047002.4,N
1633220415.2,286047000.1,N
1633220435.0,286047000.3,N
1633220435.9,286047000.3,N
1633220455.8,286047001.4,N
1633220475.6,286047002.4,N
1633220495.4,286047000.9,N
1633220515.3,286047000.4,N
1633220535.1,286047000.9,N
1633220536.0,286047000.9,N
1633220555.8,286047000.1,N
1633220575.7,286047000.3,N
1633220595.5,286047001.0,N
1633220615.3,286047002.7,N
1633220635.2,286047000.5,N
1633220655.9,286047000.2,N
1633220675.7,286047000.3,N
1633220695.6,286047000.5,N
1633220715.4,286047000.3,N
1633220735.2,286047002.6,N
1633220755.1,286047002.3,N
1633220756.0,286047002.3,N
1633220775.8,286046999.8,N
1633220795.6,286047000.4,N
1633220815.5,286047000.0,N
1633220835.3,286047000.3,N
1633220855.1,286047000.3,N
1633220875.9,286047001.3,N
1633220895.7,286047003.8,Y
1633220915.5,286047001.3,P
1633220935.4,286047001.5,P
1633220955.2,286047001.5,P
1633220975.0,286047004.4,Y
1633220975.9,286047004.4,P
1633220995.8,286047000.0,N
1633221015.6,286047000.0,N
1633221035.4,286046999.8,N
1633221055.3,286047002.0,N
1633221075.1,286046999.9,N
1633221095.8,286047002.8,N
1633221115.7,286046998.8,N
1633221135.5,286046998.5,N
1633221155.3,286046998.3,N
1633221175.2,286047000.2,N
1633221195.9,286047002.2,N
1633221215.7,286047000.2,N
1633221235.6,286046999.9,N
1633221255.4,286047001.5,N
1633221275.2,286047003.6,N
1633221295.1,286047001.9,N
1633221296.0,286047001.9,N
1633221315.8,286047001.3,N
1633221335.6,286047002.0,N
1633221355.5,286047001.4,N
1633221375.3,286047001.8,N
1633221395.1,286047001.6,N
1633221415.9,286047002.0,N
1633221435.7,286047002.6,N
1633221455.5,286047004.3,N
1633221475.4,286047004.1,N
1633221495.2,286047001.9,N
1633221515.0,286047004.3,N
1633221515.9,286047004.3,N
1633221535.8,286047004.3,N
1633221555.6,286047003.6,N
1633221575.4,286047003.1,N
1633221595.3,286047004.0,N
1633221615.1,286047001.7,N
1633221635.8,286047002.1,N
1633221655.7,286047001.6,N
1633221675.5,286047001.6,N
1633221695.3,286047001.9,N
1633221715.2,286047001.4,N
1633221735.0,286047001.4,N
1633221735.9,286047001.4,N
1633221755.7,286047001.5,N
1633221775.6,286047001.5,N
1633221795.4,286047002.1,N
1633221815.2,286047001.9,N
1633221835.1,286047003.8,Y
1633221836.0,286047003.8,P
1633221855.8,286047001.1,N
1633221875.6,286047002.8,N
1633221895.5,286047002.0,N
1633221945.3,286046998.6,E
1633221955.3,286047000.6,N
1633221975.1,286047002.3,P
1633221976.0,286047002.3,N
1633221995.8,286047000.2,N
1633222015.7,286047002.2,N
1633222035.5,286047004.3,Y
1633222055.3,286047002.7,P
1633222075.2,286047002.6,P
1633222095.9,286047001.9,P
1633222115.7,286047001.6,Y
1633222135.6,286047001.1,P
1633222155.4,286047000.9,N
1633222175.2,286047000.0,N
1633222195.1,286047002.1,N
1633222196.0,286047002.1,N
1633222215.8,286047002.1,N
1633222235.6,286047002.4,Y
1633222255.5,286046998.9,P
1633222275.3,286047001.2,N
1633222295.1,286046998.1,N
1633222315.9,286047001.1,N
1633222335.7,286046999.3,N
1633222355.5,286046998.8,N
1633222375.4,286046999.2,N
1633222395.2,286046998.3,N
1633222415.0,286046998.5,N
1633222415.9,286046998.5,N
1633222435.8,286046998.9,N
1633222455.6,286046998.3,N
1633222475.4,286046998.4,N
1633222495.3,286047001.2,N
1633222515.1,286047000.8,N
1633222535.8,286046999.8,N
1633222555.7,286047000.0,N
1633222575.5,286046999.7,N
1633222595.3,286047000.2,N
1633222615.2,286047000.0,N
1633222635.0,286047000.7,N
1633222635.9,286047000.7,N
1633222655.7,286046999.7,N
1633222675.6,286047000.4,N
1633222695.4,286046998.4,N
1633222715.2,286047011.9,Y
1633222735.1,286047001.0,P
1633222736.0,286047001.0,N
1633222755.8,286047000.4,N
1633222775.6,286047000.2,N
1633222795.5,286047002.0,Y
